Regional Weather Roundup
Issued by NWS

Home | Current Version | Previous Version | Graphics & Text | Print | Product List | Glossary On
Versions: 1 2 3 4 5 6 7 8 9 10 11 12 13 14 15 16 17 18 19 20 21 22 23 24 25 26 27 28 29 30 31 32 33 34 35 36 37 38 39 40 41 42 43 44 45 46 47 48 49 50
000
ASUS45 KTFX 031610
RWRMT
MONTANA REGIONAL WEATHER ROUNDUP
NATIONAL WEATHER SERVICE GREAT FALLS MT
1000 AM MDT MON AUG 03 2015

NOTE: "FAIR" INDICATES FEW OR NO CLOUDS BELOW 12000 FEET WITH NO
SIGNIFICANT WEATHER AND/OR OBSTRUCTIONS TO VISIBILITY.

MTZ001>007-043-031700-
WEST OF THE DIVIDE

CITY           SKY/WX    TMP DP  RH WIND       PRES   REMARKS
KALISPELL      SUNNY     75  37  25 NE12      29.88F SMOKE
MISSOULA       MOSUNNY   67  38  34 S9        29.92F
BUTTE          SUNNY     71  39  31 CALM      30.05F
MULLAN PASS    MOSUNNY   75  27  17 SE3       30.06S
DEER LODGE       N/A     70  41  35 CALM      30.02F
EUREKA           N/A     73  39  29 SW3       29.88F
HAMILTON         N/A     73  43  33 NE2       29.92F
LIBBY            N/A     70  36  28 CALM      29.87F
PLAINS           N/A     71  35  26 CALM      29.88F
RONAN            N/A     75  53  46 N2        29.94S
THOMPSON FALLS   N/A     70  34  26 CALM      29.91F
$$

MTZ008-052>055-031700-
SOUTHWEST MONTANA

CITY           SKY/WX    TMP DP  RH WIND       PRES   REMARKS
BOZEMAN        MOSUNNY   69  48  47 CALM      30.00F
DILLON         MOSUNNY   64  44  48 SW6       30.04F
W YELLOWSTONE  PTSUNNY   63  41  45 CALM      30.17S
THREE FORKS      N/A     71  67  87 CALM      29.99F
$$

MTZ009-010-012-014-046-048-049-054-031700-
EAST SLOPES AND CENTRAL MONTANA

CITY           SKY/WX    TMP DP  RH WIND       PRES   REMARKS
CUT BANK       SUNNY     67  49  52 SE8       29.95F
GREAT FALLS    SUNNY     74  50  42 VRB3      29.94F
MALMSTROM AFB  SUNNY     72  46  39 N3        29.94F
HELENA         MOSUNNY   72  45  37 CALM      29.96F
CONRAD           N/A     69  57  65 CALM      29.98S
$$

MTZ011-013-016-021-045-047-050-051-031700-
NORTH CENTRAL MONTANA

CITY           SKY/WX    TMP DP  RH WIND       PRES   REMARKS
HAVRE          SUNNY     76  55  48 E14       29.92F
LEWISTOWN      SUNNY     75  51  43 E10       30.00F
CHINOOK          N/A     70  55  60 E13       29.94F
FORT BENTON      N/A     75  50  41 E6        29.93F
$$

MTZ017>020-022>027-061-062-031700-
NORTHEAST MONTANA

CITY           SKY/WX    TMP DP  RH WIND       PRES   REMARKS
GLASGOW        SUNNY     74  48  39 SE13      30.01F
JORDAN           N/A     78  48  34 SE9       29.99F
SIDNEY         SUNNY    N/A N/A N/A CALM      30.03F
WOLF POINT     SUNNY     74  50  42 SE7       30.02F
MALTA            N/A     76  52  43 NE6       29.95F
POPLAR           N/A     73  52  46 E7        30.03F
SCOBEY           N/A     70  50  49 SE3       30.03F
$$

MTZ028>42-056>058-031700-
SOUTHCENTRAL AND SOUTHEAST MONTANA

CITY           SKY/WX    TMP DP  RH WIND       PRES   REMARKS
BAKER          SUNNY     74  49  41 SE13      30.05F
BILLINGS       PTSUNNY   73  48  41 E5        30.01F
LIVINGSTON     MOSUNNY   70  44  39 E6        30.04F
MILES CITY     SUNNY     76  51  41 E5        30.00F
EKALAKA          N/A     74  48  39 E13       30.03F
FORSYTH          N/A     79  50  36 E12       29.98F
LAUREL           N/A     72  47  40 NE3       30.00F
ROUNDUP          N/A     73  46  38 NE2       29.92F
$$

REGIONAL REPORTS...DAKOTAS

CITY           SKY/WX    TMP DP  RH WIND       PRES   REMARKS
WILLISTON      SUNNY     72  47  40 SE3       30.04F
MINOT          MOSUNNY   72  49  44 CALM      30.02S
DICKINSON      SUNNY     72  48  42 E7        30.04F
CROSBY         FAIR      72  50  46 CALM      30.04F
BISMARCK       SUNNY     72  53  51 S5        30.04S
GRAND FORKS    MOSUNNY   70  52  52 NW13      29.94R
FARGO          SUNNY     72  53  51 NW9       29.94S
BUFFALO SD       N/A     74  53  48 SE7       30.00S
RAPID CITY     SUNNY     74  58  57 SE6       30.05F
$$

REGIONAL REPORTS...WYOMING/IDAHO/WASHINGTON

CITY           SKY/WX    TMP DP  RH WIND       PRES   REMARKS
GILLETTE       MOSUNNY   76  57  51 SE14      30.06F
SHERIDAN       MOSUNNY   72  48  42 N5        30.02F
BUFFALO WY     SUNNY     77  55  46 S13       30.09F
CODY           MOSUNNY   70  46  43 NE5       30.07S
YELLOWSTONE LA   N/A     64  44  48 VRB3      30.26S
IDAHO FALLS    CLOUDY    73  50  44 S7        30.04R
SALMON         MOSUNNY   66  41  39 CALM      29.94F
BOISE          CLOUDY    80  48  32 NE3       29.92R
SPOKANE        MOSUNNY   76  34  21 SE6       29.83S
$$

REGIONAL REPORTS...ALBERTA

CITY           SKY/WX    TMP DP  RH WIND       PRES   REMARKS
EDMONTON       MOSUNNY   68  57  68 NE9       29.88F
CALGARY        CLOUDY    64  52  63 SW9G18    29.89F
LETHBRIDGE     PTSUNNY   70  54  56 CALM      29.91R
WATERTON GATE    N/A     64  50  59 SW1         N/A
CARDSTON         N/A     68  52  56 SE1         N/A
MILK RIVER       N/A     73  50  43 S18G24      N/A
ONEFOUR          N/A     72  50  46 SE13        N/A
$$

REGIONAL REPORTS...SASKATCHEWAN

CITY           SKY/WX    TMP DP  RH WIND       PRES   REMARKS
SWIFT CURRENT  SUNNY     73  54  49 S10G17    30.01S
REGINA         PTSUNNY   75  54  46 W3        30.03S
SASKATOON      MOSUNNY   72  54  53 VRB5      30.02F
CYPRESS HILLS    N/A     66  48  52 SE12G17     N/A
VAL MARIE        N/A     72  50  46 S13         N/A
ROCKGLEN         N/A     70  52  52 SE6         N/A
ASSINIBOIA       N/A     68  55  64 SE6         N/A
$$



USA.gov is the U.S. government's official web portal to all federal, state and local government web resources and services.